Погода в Вязниках

Россия / Владимирская область     56°14′49″N   42°09′31″E
темп.,
°C
ветер,
м/с
пор.,
м/с
влажн.,
%
обл.,
%
осадки,
мм/ч
давл.,
гПа
погр.,
м
11 апреля, вс
вс1100:000ю35901 0.0 102777
03:000ююз34892 0.0 102763
06:00−4ююз34905 0.0 102855
09:00+4ююз24940 0.0 1029135
12:00+9юз23720 0.0 1030408
15:00+12зюз23578 0.0 1031845
18:00+9юв227413 0.0 103215
21:00+5ссз11825 0.0 103410
12 апреля, пн
пн1200:00+4вюв228551 0.0 103512
03:00+3в228726 0.0 103628
06:00+2в379157 0.0 1036134
09:00+7в4881100 0.0 1036340
12:00+11в5865100 0.0 1036697
15:00+11в6961100 0.0 1034797
18:00+8вюв61371100 0.0 1033595
21:00+6вюв51188100 0.0 1033336
13 апреля, вт
вт1300:00+5вюв3896100 0.0 1032208
03:00+4вюв359769 0.0 103191
06:00+5юв3594100 0.0 103079
09:00+12ю4772100 0.0 1029257
12:00+17ю585187 0.0 1028785
15:00+19ю564167 0.0 10271552
18:00+15ю3450100 0.0 102660
21:00+11ююв3363100 0.0 102741
14 апреля, ср
ср1400:00+9ю397294 0.0 1026131
03:00+8ю3975100 0.0 1026140
06:00+7ю38784 0.0 1026132
09:00+13ю47545 0.0 1025325
12:00+18ю563848 0.0 1024878
15:00+19ю4532100 0.0 10231409
18:00+17ю2345100 0.0 102236
21:00+12ююв3358100 0.0 102236
15 апреля, чт
чт1500:00+10ю356893 0.0 102166
03:00+9ю227094 0.0 102021
06:00+8ю337086 0.0 102049
09:00+13ююз3555100 0.0 1019289
12:00+17ююз3441100 0.0 1018891
15:00+19юз233499 0.0 10171879
18:00+16сз2248100 0.0 101633
21:00+11с61079100 0.0 1017435